CZ-6A DEB, 54630

Orbit data source: Space-Track

CZ-6A DEB, 54630 is space debris in SSO originally from a launch on Fri, 11 Nov 2022 UTC launched from the Taiyaun Space Center, China (TSC). Debris objects in space refer to the collection of defunct objects orbiting the Earth. Examples of debris include non-operational satellites, rocket bodies, and fragments generated from explosions, collisions, or faulty payload assembly.

Loading next visibility...
Identifier
54630, 2022-151PG
Orbit
SSO
Country
Flag of CNCN / PRC
Related business
Manufacturer
SAST
Mission
Spacecraft
Bus & Motor
Unknown
Mass
Unknown
Launch date (UTC)
2022-11-11 (4 years ago)
Launch vehicle
Unknown
Launch site
Taiyaun Space Center, China (TSC)
Object type
Payload
Rocket body
Debris
Shape & HBR
Unknown shape, 0.1 m
Radar Cross Section
Small (<0.1 m²)

Expand to show TLE details & history
Last TLE update: 21 hours ago

TLE from 21 hours ago
0 CZ-6A DEB
1 54630U 22151PG  26144.11987167  .00011556  00000-0  15714-2 0  9994
2 54630  98.6263 213.6210 0059477 347.5792  12.3947 14.77725370185898
Epoch: 2026-05-24T02:52Z
TLE epoch observation values (Epoch: 2026-05-24T02:52:36.912Z)
Latitude
-0.00001°
Longitude
-71.25938°
Altitude
598.763 km
Speed
7.582 km/s
True Right ascension
14h 14m 29s
True Declination
0° 00' 00"
Sunlit
Object was in full shadow at epoch
Visualization orbit readout
Latitude
Unknown
Longitude
Unknown
Altitude
Unknown
Speed
Unknown
Apparent Right ascension
Unknown
Apparent Declination
Unknown
Sunlit
N/A
Visualization observer readout
Local Sidereal Time
09:15:35
Azimuth
Unknown
Elevation
Unknown
Doppler factor
Unknown
Orbital elements
Apogee altitude
675.295 km
Perigee altitude
591.887 km
Semi-major axis
7,011.728 km
Eccentricity
0.00595
Inclination
98.6263°
RAAN
213.621°
Arg. of periapsis
347.5792°
True anomaly
12.54206°
Mean anomaly
12.3947°
Eccentric anomaly
12.46827°
Mean motion
3.69663 °/min
Orbital period
97.39 mins
BSTAR
0.0015714
Loading maneuver chart data...
Computing Atmospheric mass density...
Loading historical data...
Loading historical data...
Loading historical data...
Loading historical data...
Loading historical data...
Loading historical data...
Loading historical data...

Documentation

Showing up to 5 results
|